FW6934 Weather Reports


time (UTC)temp
C
wind
direction
speed
KPH
gust
KPH
rain 1hr
cm
rain 24hr
cm
rain mn
cm
humidity
%
barometer
mb
20260831050501 16 325 1.6 8.0 0.00 0.00 0.00 71 1003.6
20260831050055 16 305 1.6 8.0 0.00 0.00 0.00 71 1003.6
20260831045541 16 247 1.6 4.8 0.00 0.00 0.00 70 1003.6
20260831045049 16 246 1.6 8.0 0.00 0.00 0.00 70 1003.7
20260831044503 16 307 3.2 8.0 0.00 0.00 0.00 70 1003.7
20260831044010 16 301 3.2 6.4 0.00 0.00 0.00 69 1003.7
20260831043523 17 14 0.0 3.2 0.00 0.00 0.00 69 1003.7
20260831043052 17 284 0.0 3.2 0.00 0.00 0.00 69 1003.8
20260831042554 17 281 0.0 3.2 0.00 0.00 0.00 68 1003.8
20260831042043 17 281 1.6 6.4 0.00 0.00 0.00 67 1003.7
20260831041614 17 281 0.0 6.4 0.00 0.00 0.00 67 1003.7
20260831041010 17 10 0.0 4.8 0.00 0.00 0.00 66 1003.8
20260831040515 17 10 1.6 8.0 0.00 0.00 0.00 66 1003.7
20260831040051 17 344 1.6 8.0 0.00 0.00 0.00 66 1003.8
20260831035558 17 355 1.6 8.0 0.00 0.00 0.00 66 1003.7
20260831035005 18 338 1.6 8.0 0.00 0.00 0.00 65 1003.8
20260831034541 18 51 3.2 8.0 0.00 0.00 0.00 65 1003.8
20260831034047 18 19 0.0 9.7 0.00 0.00 0.00 65 1003.8
20260831033553 18 5 3.2 9.7 0.00 0.00 0.00 64 1003.7
20260831033031 18 12 3.2 11.3 0.00 0.00 0.00 64 1003.7
20260831032542 18 55 3.2 11.3 0.00 0.00 0.00 63 1003.7
20260831032047 18 122 1.6 9.7 0.00 0.00 0.00 63 1003.8
20260831031526 18 5 4.8 16.1 0.00 0.00 0.00 63 1003.7
20260831031030 18 313 6.4 16.1 0.00 0.00 0.00 62 1003.8
20260831030540 18 34 6.4 14.5 0.00 0.00 0.00 61 1003.7
20260831030003 18 227 4.8 12.9 0.00 0.00 0.00 61 1003.7
20260831025517 19 18 3.2 12.9 0.00 0.00 0.00 60 1003.7
20260831025023 19 21 3.2 9.7 0.00 0.00 0.00 59 1003.7
20260831024611 19 360 1.6 17.7 0.00 0.00 0.00 59 1003.8
20260831024100 19 42 3.2 17.7 0.00 0.00 0.00 59 1003.8
20260831023507 20 342 3.2 12.9 0.00 0.00 0.00 58 1003.8
20260831023031 20 25 4.8 12.9 0.00 0.00 0.00 58 1003.8
20260831022537 20 28 4.8 12.9 0.00 0.00 0.00 57 1003.8
20260831022045 20 61 4.8 20.9 0.00 0.00 0.00 58 1003.8
20260831021519 20 5 6.4 20.9 0.00 0.00 0.00 58 1003.8
20260831021029 20 346 8.0 17.7 0.00 0.00 0.00 58 1003.8
20260831020539 20 9 6.4 17.7 0.00 0.00 0.00 57 1003.8
20260831020003 20 329 8.0 19.3 0.00 0.00 0.00 58 1003.7
20260831015517 20 360 8.0 19.3 0.00 0.00 0.00 58 1003.8
20260831015022 20 328 9.7 19.3 0.00 0.00 0.00 58 1003.7
20260831014603 20 16 4.8 16.1 0.00 0.00 0.00 57 1003.7
20260831014002 20 20 4.8 16.1 0.00 0.00 0.00 58 1003.8
20260831013511 21 55 8.0 16.1 0.00 0.00 0.00 58 1003.8
20260831013047 21 351 8.0 16.1 0.00 0.00 0.00 56 1003.8
20260831012555 21 13 6.4 16.1 0.00 0.00 0.00 56 1003.8
20260831012103 21 360 6.4 16.1 0.00 0.00 0.00 55 1003.9
20260831011538 21 351 4.8 14.5 0.00 0.00 0.00 55 1003.9
20260831011043 21 77 6.4 16.1 0.00 0.00 0.00 55 1004.1
20260831010551 21 45 8.0 16.1 0.00 0.00 0.00 55 1004.0
20260831010035 21 5 4.8 14.5 0.00 0.00 0.00 55 1004.1
20260831005531 21 34 4.8 19.3 0.00 0.00 0.00 54 1004.2
20260831005041 22 26 6.4 19.3 0.00 0.00 0.00 54 1004.2
20260831004509 22 51 4.8 14.5 0.00 0.00 0.00 54 1004.2
20260831004023 22 45 3.2 16.1 0.00 0.00 0.00 53 1004.2
20260831003531 22 350 8.0 16.1 0.00 0.00 0.00 53 1004.2
20260831003106 22 360 6.4 14.5 0.00 0.00 0.00 53 1004.3
20260831002504 22 111 4.8 14.5 0.00 0.00 0.00 53 1004.4
20260831002018 22 39 1.6 16.1 0.00 0.00 0.00 54 1004.4
20260831001540 22 13 6.4 16.1 0.00 0.00 0.00 52 1004.4
20260831001041 22 78 3.2 19.3 0.00 0.00 0.00 52 1004.4
20260831000548 22 28 8.0 19.3 0.00 0.00 0.00 53 1004.6
20260831000025 22 159 3.2 16.1 0.00 0.00 0.00 52 1004.5
20260830235537 22 355 8.0 16.1 0.00 0.00 0.00 52 1004.6
20260830235053 22 86 6.4 16.1 0.00 0.00 0.00 52 1004.5
20260830234506 22 309 4.8 11.3 0.00 0.00 0.00 54 1004.6
20260830234018 22 32 1.6 14.5 0.00 0.00 0.00 52 1004.6
20260830233527 22 55 6.4 14.5 0.00 0.00 0.00 53 1004.8
20260830233058 22 59 6.4 12.9 0.00 0.00 0.00 53 1004.8
20260830232505 22 341 3.2 16.1 0.00 0.00 0.00 53 1004.9
20260830232023 22 87 4.8 16.1 0.00 0.00 0.00 51 1004.9
20260830231538 22 47 1.6 11.3 0.00 0.00 0.00 52 1005.0
20260830231048 22 25 3.2 16.1 0.00 0.00 0.00 51 1005.0
20260830230556 22 63 3.2 14.5 0.00 0.00 0.00 53 1005.1
20260830230037 22 347 6.4 17.7 0.00 0.00 0.00 51 1005.1
20260830225534 22 298 4.8 17.7 0.00 0.00 0.00 50 1005.3
20260830225046 22 29 1.6 12.9 0.00 0.00 0.00 50 1005.3
20260830224529 22 85 3.2 8.0 0.00 0.00 0.00 51 1005.6
20260830224025 22 274 3.2 8.0 0.00 0.00 0.00 52 1005.6
20260830223531 22 269 1.6 17.7 0.00 0.00 0.00 51 1005.7
20260830223059 22 261 8.0 17.7 0.00 0.00 0.00 52 1005.9
20260830222504 22 99 4.8 11.3 0.00 0.00 0.00 50 1005.9
20260830222016 22 71 3.2 11.3 0.00 0.00 0.00 50 1006.0
20260830221534 22 44 3.2 12.9 0.00 0.00 0.00 52 1006.0
20260830221040 22 280 4.8 14.5 0.00 0.00 0.00 52 1006.1
20260830220548 22 5 3.2 9.7 0.00 0.00 0.00 50 1006.2
20260830220025 22 273 1.6 12.9 0.00 0.00 0.00 52 1006.2
20260830215527 22 313 6.4 12.9 0.00 0.00 0.00 51 1006.3
20260830215038 22 68 4.8 11.3 0.00 0.00 0.00 52 1006.4
20260830214505 22 138 3.2 11.3 0.00 0.00 0.00 52 1006.3
20260830214023 22 70 4.8 9.7 0.00 0.00 0.00 50 1006.4
20260830213518 22 218 3.2 12.9 0.00 0.00 0.00 49 1006.5
20260830213102 22 74 6.4 12.9 0.00 0.00 0.00 49 1006.7
20260830212600 22 70 3.2 12.9 0.00 0.00 0.00 52 1006.7
20260830212107 22 355 4.8 11.3 0.00 0.00 0.00 51 1006.8
20260830211538 22 62 1.6 11.3 0.00 0.00 0.00 51 1006.9
20260830211047 21 279 3.2 6.4 0.00 0.00 0.00 52 1006.9
20260830210551 21 97 1.6 11.3 0.00 0.00 0.00 50 1006.9
20260830210024 21 89 4.8 11.3 0.00 0.00 0.00 50 1007.1
20260830205532 22 51 4.8 11.3 0.00 0.00 0.00 52 1007.0
20260830205040 21 19 6.4 12.9 0.00 0.00 0.00 53 1007.1
20260830204506 21 355 3.2 9.7 0.00 0.00 0.00 53 1007.1
20260830204010 21 109 4.8 9.7 0.00 0.00 0.00 54 1007.1
20260830203516 20 311 1.6 16.1 0.00 0.00 0.00 54 1007.3
20260830203050 21 9 4.8 16.1 0.00 0.00 0.00 52 1007.3
20260830202558 21 42 1.6 12.9 0.00 0.00 0.00 54 1007.3
20260830202004 21 317 4.8 14.5 0.00 0.00 0.00 52 1007.3
20260830201605 21 11 8.0 14.5 0.00 0.00 0.00 54 1007.5
20260830201048 21 26 4.8 14.5 0.00 0.00 0.00 53 1007.5
20260830200552 21 61 6.4 14.5 0.00 0.00 0.00 53 1007.6
20260830200028 20 186 1.6 12.9 0.00 0.00 0.00 54 1007.6
20260830195537 20 5 4.8 12.9 0.00 0.00 0.00 54 1007.7
20260830195045 20 5 4.8 12.9 0.00 0.00 0.00 55 1007.6
20260830194515 20 251 4.8 12.9 0.00 0.00 0.00 57 1007.6
20260830194025 20 42 1.6 12.9 0.00 0.00 0.00 56 1007.7
20260830193531 20 37 4.8 14.5 0.00 0.00 0.00 56 1007.7
20260830193002 20 26 3.2 8.0 0.00 0.00 0.00 56 1007.9
20260830192508 19 19 1.6 12.9 0.00 0.00 0.00 56 1007.9
20260830192014 20 333 1.6 12.9 0.00 0.00 0.00 57 1008.0
20260830191551 20 287 6.4 12.9 0.00 0.00 0.00 58 1008.1
20260830191058 19 63 3.2 9.7 0.00 0.00 0.00 56 1008.1
20260830190502 20 55 1.6 11.3 0.00 0.00 0.00 57 1008.1
20260830190039 20 28 4.8 12.9 0.00 0.00 0.00 55 1008.3
20260830185544 19 46 1.6 6.4 0.00 0.00 0.00 59 1008.3
20260830185053 18 124 3.2 9.7 0.00 0.00 0.00 60 1008.3
20260830184532 18 97 3.2 9.7 0.00 0.00 0.00 60 1008.4
20260830184039 18 50 3.2 12.9 0.00 0.00 0.00 58 1008.5
20260830183545 19 55 8.0 12.9 0.00 0.00 0.00 58 1008.5
20260830183010 18 313 4.8 9.7 0.00 0.00 0.00 59 1008.4
20260830182524 18 39 3.2 14.5 0.00 0.00 0.00 60 1008.4
20260830182032 18 53 4.8 14.5 0.00 0.00 0.00 59 1008.5
20260830181510 18 32 4.8 16.1 0.00 0.00 0.00 60 1008.4
20260830181023 18 355 4.8 16.1 0.00 0.00 0.00 59 1008.5
20260830180531 19 17 4.8 12.9 0.00 0.00 0.00 59 1008.5
20260830180100 19 100 3.2 9.7 0.00 0.00 0.00 58 1008.4
20260830175600 18 295 1.6 8.0 0.00 0.00 0.00 61 1008.4
20260830175108 17 51 0.0 16.1 0.00 0.00 0.00 62 1008.5
20260830174539 18 32 4.8 16.1 0.00 0.00 0.00 63 1008.4
20260830174045 18 46 3.2 9.7 0.00 0.00 0.00 62 1008.4
20260830173549 17 78 1.6 9.7 0.00 0.00 0.00 64 1008.4
20260830173025 17 76 3.2 9.7 0.00 0.00 0.00 66 1008.4
20260830172532 17 309 3.2 9.7 0.00 0.00 0.00 66 1008.4
20260830172039 17 19 4.8 11.3 0.00 0.00 0.00 65 1008.4
20260830171502 17 69 4.8 8.0 0.00 0.00 0.00 65 1008.5
20260830171018 17 40 3.2 8.0 0.00 0.00 0.00 68 1008.5
20260830170524 17 304 3.2 9.7 0.00 0.00 0.00 70 1008.6
20260830170050 16 30 6.4 9.7 0.00 0.00 0.00 71 1008.6
20260830165557 16 76 1.6 11.3 0.00 0.00 0.00 72 1008.5
20260830165103 16 287 6.4 9.7 0.00 0.00 0.00 73 1008.5
20260830164538 16 19 3.2 4.8 0.00 0.00 0.00 74 1008.5
20260830164042 16 55 1.6 4.8 0.00 0.00 0.00 75 1008.4
20260830163548 15 158 0.0 4.8 0.00 0.00 0.00 75 1008.4
20260830163027 15 38 3.2 4.8 0.00 0.00 0.00 74 1008.5
20260830162533 15 12 1.6 4.8 0.00 0.00 0.00 74 1008.6
20260830162033 15 10 0.0 4.8 0.00 0.00 0.00 75 1008.6
20260830161604 15 19 1.6 6.4 0.00 0.00 0.00 76 1008.7
20260830161006 15 38 1.6 6.4 0.00 0.00 0.00 77 1008.7
20260830160524 15 45 3.2 6.4 0.00 0.00 0.00 77 1008.8
20260830160050 14 51 0.0 3.2 0.00 0.00 0.00 77 1008.8
20260830155556 14 317 0.0 0.0 0.00 0.00 0.00 78 1008.8
20260830155103 13 317 0.0 0.0 0.00 0.00 0.00 79 1008.7
20260830154536 13 317 0.0 0.0 0.00 0.00 0.00 80 1008.7
20260830154044 13 317 0.0 0.0 0.00 0.00 0.00 81 1008.7
20260830153539 13 283 0.0 0.0 0.00 0.00 0.00 82 1008.7
20260830153032 12 283 0.0 0.0 0.00 0.00 0.00 83 1008.7
20260830152525 12 283 0.0 0.0 0.00 0.00 0.00 85 1008.7
20260830152012 11 283 0.0 0.0 0.00 0.00 0.00 86 1008.8
20260830151555 11 283 0.0 0.0 0.00 0.00 0.00 86 1008.9
20260830151056 11 283 0.0 0.0 0.00 0.00 0.00 86 1008.9
20260830150603 11 283 0.0 0.0 0.00 0.00 0.00 87 1008.9
20260830150030 10 283 0.0 0.0 0.00 0.00 0.00 87 1009.0
20260830145540 10 283 0.0 0.0 0.00 0.00 0.00 87 1008.9
20260830145043 10 283 0.0 0.0 0.00 0.00 0.00 88 1009.0
20260830144504 10 283 0.0 0.0 0.00 0.00 0.00 87 1009.0
20260830144019 10 283 0.0 0.0 0.00 0.00 0.00 87 1009.0
20260830143527 10 283 0.0 0.0 0.00 0.00 0.00 87 1008.9
20260830143102 10 249 0.0 0.0 0.00 0.00 0.00 87 1008.8
20260830142556 10 249 0.0 0.0 0.00 0.00 0.00 87 1008.7
20260830142004 10 249 0.0 0.0 0.00 0.00 0.00 87 1008.7
20260830141542 10 249 0.0 0.0 0.00 0.00 0.00 87 1008.7
20260830141045 10 249 0.0 0.0 0.00 0.00 0.00 87 1008.7
20260830140554 10 249 0.0 0.0 0.00 0.00 0.00 87 1008.7
20260830140011 10 249 0.0 0.0 0.00 0.00 0.00 87 1008.7
20260830135518 10 249 0.0 0.0 0.00 0.00 0.00 87 1008.7
20260830135016 10 249 0.0 0.0 0.00 0.00 0.00 87 1008.8
20260830134554 10 249 0.0 1.6 0.00 0.00 0.00 86 1008.8
20260830134057 10 249 0.0 1.6 0.00 0.00 0.00 86 1008.6
20260830133556 10 249 0.0 1.6 0.00 0.00 0.00 86 1008.8
20260830133039 10 249 0.0 1.6 0.00 0.00 0.00 86 1008.6
20260830132538 10 249 0.0 1.6 0.00 0.00 0.00 86 1008.6
20260830132040 10 249 0.0 1.6 0.00 0.00 0.00 86 1008.6
20260830131507 10 249 0.0 0.0 0.00 0.00 0.00 85 1008.6
20260830131026 10 249 0.0 1.6 0.00 0.00 0.00 85 1008.6
20260830130533 10 249 0.0 1.6 0.00 0.00 0.00 86 1008.6
20260830130056 10 249 0.0 3.2 0.00 0.15 0.00 86 1008.6
20260830125502 10 249 0.0 3.2 0.00 0.15 0.00 86 1008.5
20260830125007 10 249 0.0 1.6 0.00 0.15 0.00 85 1008.5
20260830124555 10 249 0.0 0.0 0.00 0.15 0.00 86 1008.5
20260830124056 10 249 0.0 3.2 0.00 0.15 0.00 86 1008.4
20260830123604 10 249 0.0 3.2 0.00 0.15 0.00 86 1008.4
20260830123039 10 249 0.0 1.6 0.00 0.15 0.00 86 1008.4
20260830122543 10 249 0.0 3.2 0.00 0.15 0.00 86 1008.3
20260830122048 10 249 0.0 3.2 0.00 0.15 0.00 86 1008.2
20260830121527 10 249 1.6 3.2 0.00 0.15 0.00 86 1008.2
20260830121019 10 249 1.6 3.2 0.00 0.15 0.00 86 1008.2
20260830120536 10 249 1.6 3.2 0.00 0.15 0.00 86 1008.2
20260830120004 10 249 1.6 3.2 0.00 0.15 0.00 86 1008.2
20260830115507 10 249 1.6 3.2 0.00 0.15 0.00 86 1008.2
20260830115012 10 249 1.6 3.2 0.00 0.15 0.00 85 1008.3
20260830114557 11 249 1.6 3.2 0.00 0.15 0.00 85 1008.3
20260830114057 11 249 0.0 3.2 0.00 0.15 0.00 85 1008.2
20260830113555 11 249 0.0 3.2 0.00 0.15 0.00 85 1008.3
20260830113032 11 249 1.6 3.2 0.00 0.15 0.00 85 1008.3
20260830112537 11 249 1.6 3.2 0.00 0.15 0.00 85 1008.2
20260830112039 11 249 0.0 3.2 0.00 0.15 0.00 85 1008.3
20260830111505 11 249 1.6 3.2 0.00 0.15 0.00 85 1008.2
20260830111021 11 249 1.6 3.2 0.00 0.15 0.00 85 1008.2
20260830110527 11 249 1.6 4.8 0.00 0.15 0.00 85 1008.1
20260830110048 11 249 1.6 4.8 0.00 0.15 0.00 85 1008.3
20260830105555 11 249 1.6 4.8 0.00 0.15 0.00 85 1008.3
20260830105101 11 249 1.6 4.8 0.00 0.15 0.00 85 1008.2
20260830104520 11 249 1.6 4.8 0.00 0.15 0.00 85 1008.2
20260830104027 11 249 1.6 4.8 0.00 0.15 0.00 85 1008.3
20260830103533 11 249 0.0 6.4 0.00 0.15 0.00 85 1008.2
20260830103102 11 249 1.6 6.4 0.00 0.15 0.00 85 1008.2
20260830102504 11 225 3.2 6.4 0.00 0.15 0.00 85 1008.1
20260830102014 11 230 3.2 8.0 0.00 0.15 0.00 85 1008.1
20260830101551 11 229 3.2 8.0 0.00 0.15 0.00 84 1008.2
20260830101057 11 236 3.2 6.4 0.00 0.15 0.00 84 1008.2
20260830100604 11 241 1.6 6.4 0.00 0.15 0.00 84 1008.1
20260830100039 11 237 1.6 4.8 0.00 0.15 0.00 84 1008.2
20260830095539 11 279 1.6 4.8 0.00 0.15 0.00 84 1008.2
20260830095049 11 245 1.6 4.8 0.00 0.15 0.00 84 1008.3
20260830094552 11 245 1.6 4.8 0.00 0.15 0.00 83 1008.2
20260830094031 11 244 1.6 4.8 0.00 0.15 0.00 83 1008.3
20260830093532 11 244 3.2 4.8 0.00 0.15 0.00 84 1008.1
20260830093047 11 257 1.6 6.4 0.00 0.15 0.00 83 1008.1
20260830092552 11 265 0.0 8.0 0.00 0.15 0.00 83 1008.2
20260830092053 11 260 1.6 8.0 0.00 0.15 0.00 83 1008.1
20260830091519 11 235 3.2 6.4 0.00 0.15 0.00 83 1008.1
20260830091036 11 238 1.6 6.4 0.00 0.15 0.00 83 1008.2
20260830090541 11 233 3.2 4.8 0.00 0.15 0.00 82 1008.2
20260830090019 11 233 0.0 4.8 0.00 0.15 0.00 82 1008.3
20260830085530 11 287 1.6 4.8 0.00 0.15 0.00 82 1008.2
20260830085033 11 288 0.0 4.8 0.00 0.15 0.00 82 1008.2
20260830084549 11 288 1.6 4.8 0.00 0.15 0.00 82 1008.2
20260830084057 11 286 1.6 4.8 0.00 0.15 0.00 82 1008.3
20260830083505 11 214 1.6 6.4 0.00 0.15 0.00 82 1008.3
20260830083036 11 213 1.6 6.4 0.00 0.15 0.00 82 1008.3
20260830082545 11 252 1.6 4.8 0.00 0.15 0.00 82 1008.4
20260830082051 11 242 1.6 4.8 0.00 0.15 0.00 82 1008.4
20260830081525 11 240 1.6 4.8 0.00 0.15 0.00 82 1008.3
20260830081015 11 200 3.2 4.8 0.00 0.15 0.00 82 1008.3
20260830080529 11 213 3.2 8.0 0.00 0.15 0.00 81 1008.3
20260830080100 11 275 3.2 8.0 0.00 0.15 0.00 81 1008.4
20260830075557 11 281 3.2 4.8 0.00 0.15 0.00 81 1008.4
20260830075004 11 282 1.6 4.8 0.00 0.15 0.00 80 1008.4
20260830074539 11 221 1.6 4.8 0.00 0.15 0.00 80 1008.4
20260830074041 11 221 1.6 4.8 0.00 0.15 0.00 80 1008.3
20260830073547 11 315 0.0 0.0 0.00 0.15 0.00 80 1008.4
20260830073015 11 315 0.0 0.0 0.00 0.15 0.00 79 1008.3
20260830072529 11 315 0.0 0.0 0.00 0.15 0.00 79 1008.4
20260830072025 11 315 0.0 0.0 0.00 0.15 0.00 79 1008.3
20260830071553 11 315 0.0 0.0 0.00 0.15 0.00 79 1008.3
20260830071102 11 315 0.0 0.0 0.00 0.15 0.00 78 1008.2
20260830070602 11 315 0.0 0.0 0.00 0.15 0.00 77 1008.3
20260830070034 11 315 0.0 0.0 0.00 0.15 0.15 77 1008.3
20260830065534 12 315 0.0 0.0 0.00 0.15 0.15 77 1008.3
20260830065039 12 315 0.0 0.0 0.00 0.15 0.15 77 1008.2
20260830064601 12 315 0.0 0.0 0.00 0.15 0.15 76 1008.3
20260830064007 12 315 0.0 0.0 0.00 0.15 0.15 76 1008.2
20260830063519 12 315 0.0 0.0 0.00 0.15 0.15 76 1008.3
20260830063049 12 315 0.0 0.0 0.00 0.15 0.15 76 1008.2
20260830062558 12 18 0.0 0.0 0.00 0.15 0.15 75 1008.2
20260830062001 12 18 0.0 0.0 0.00 0.15 0.15 75 1008.1
20260830061534 12 18 0.0 0.0 0.00 0.15 0.15 75 1008.1
20260830061039 12 18 0.0 0.0 0.00 0.15 0.15 75 1008.1
20260830060547 12 18 0.0 0.0 0.00 0.15 0.15 75 1008.1
20260830060014 12 18 0.0 0.0 0.00 0.15 0.15 75 1008.1
20260830055521 12 18 0.0 0.0 0.00 0.15 0.15 74 1008.2
20260830055029 12 18 0.0 0.0 0.00 0.15 0.15 74 1008.3
20260830054559 12 18 0.0 0.0 0.00 0.15 0.15 73 1008.2
20260830054002 13 18 0.0 3.2 0.00 0.15 0.15 72 1008.2
20260830053509 13 18 0.0 3.2 0.00 0.15 0.15 72 1008.1
20260830053046 13 18 1.6 3.2 0.00 0.15 0.15 72 1008.2
20260830052553 13 18 0.0 3.2 0.00 0.15 0.15 71 1008.1
20260830052057 13 18 1.6 3.2 0.00 0.15 0.15 70 1008.1
20260830051535 13 18 0.0 3.2 0.00 0.15 0.15 70 1008.0
20260830051044 13 18 1.6 3.2 0.00 0.15 0.15 69 1008.0